Regional Weather Roundup
Issued by NWS

Home | Current Version | Previous Version | Text Only | Print | Product List | Glossary Off
Versions: 1 2 3 4 5 6 7 8 9 10 11 12 13 14 15 16 17 18 19 20 21 22 23 24 25 26 27 28

000
ASUS45 KBOI 230110
RWRID
WEATHER ROUNDUP FOR IDAHO
NATIONAL WEATHER SERVICE BOISE ID
700 PM MDT TUE APR 22 2014

NOTE: "FAIR" INDICATES FEW OR NO CLOUDS BELOW 12000 FEET
WITH NO SIGNIFICANT WEATHER AND/OR OBSTRUCTIONS TO VISIBILITY

IDZ012-014-230200-
SOUTHWEST IDAHO


CITY           SKY/WX    TMP DP  RH WIND       PRES   REMARKS
BOISE          CLOUDY    48  40  73 NW17      29.78R
CALDWELL       CLOUDY    48  32  53 W15       29.82R
MOUNTAIN HOME  PTSUNNY   47  47  98 NW16      29.77R
$$

IDZ016-017-230200-
SOUTHCENTRAL IDAHO


CITY           SKY/WX    TMP DP  RH WIND       PRES   REMARKS
BURLEY         LGT RAIN  40  37  89 SW17G25   29.76R WCI  31
JEROME         CLOUDY    43  40  89 S10       29.76R
TWIN FALLS     CLOUDY    43  37  79 SW14      29.75F
$$

IDZ019>023-230200-
SOUTHEAST IDAHO


CITY           SKY/WX    TMP DP  RH WIND       PRES   REMARKS
IDAHO FALLS    CLOUDY    44  39  82 S24G31    29.65F
POCATELLO      LGT RAIN  42  39  89 SW24G31   29.73R
REXBURG        LGT RAIN  40  37  89 S18G26    29.63F WCI  31
$$

IDZ006-010-011-018-031-032-230200-
CENTRAL IDAHO MOUNTAINS


CITY           SKY/WX    TMP DP  RH WIND       PRES   REMARKS
MCCALL         LGT SNOW  33  31  92 W12G17    29.73R FOG     WCI  24
HAILEY         CLOUDY    43  34  70 CALM      29.68F
STANLEY          N/A     33  32  96 NW3       29.71R
SALMON         CLOUDY    43  39  87 SW7       29.63F
CHALLIS        CLOUDY    43  34  70 SE7       29.65S
$$

IDZ002-004-006-007-026-230200-
NORTHERN IDAHO


CITY           SKY/WX    TMP DP  RH WIND       PRES   REMARKS
LEWISTON       CLOUDY    54  26  34 W15G28    29.80R
LOWELL         NOT AVBL
COEUR D`ALENE  CLOUDY    48  48 100 SW20G25   29.74S
MULLAN PASS    FOG       29  29 100 VRB7G18   29.69S VSB 1/4 WCI  22
$$



USA.gov is the U.S. government's official web portal to all federal, state and local government web resources and services.